| time (UTC) | temp F | wind direction | speed MPH | gust MPH | rain 1hr in | rain 24hr in | rain mn in | humidity % | barometer mb |
| 20260506135004 | 75 | 256 | 12.0 | 17.0 | 0.00 | 0.00 | 0.00 | 46 | 1004.0 |
| 20260506134725 | 74 | 258 | 10.0 | 15.0 | 0.00 | 0.00 | 0.00 | 46 | 1005.5 |
| 20260506134504 | 74 | 243 | 9.0 | 13.0 | 0.00 | 0.00 | 0.00 | 46 | 1003.9 |
| 20260506133724 | 74 | 250 | 11.0 | 16.0 | 0.00 | 0.00 | 0.00 | 46 | 1005.5 |
| 20260506133504 | 74 | 236 | 11.0 | 17.0 | 0.00 | 0.00 | 0.00 | 46 | 1003.8 |
| 20260506133004 | 74 | 244 | 11.0 | 15.0 | 0.00 | 0.00 | 0.00 | 46 | 1003.9 |
| 20260506132724 | 74 | 257 | 12.0 | 16.0 | 0.00 | 0.00 | 0.00 | 45 | 1005.4 |
| 20260506132505 | 74 | 284 | 12.0 | 16.0 | 0.00 | 0.00 | 0.00 | 46 | 1003.9 |
| 20260506132224 | 75 | 273 | 13.0 | 16.0 | 0.00 | 0.00 | 0.00 | 45 | 1005.4 |
| 20260506132005 | 75 | 270 | 13.0 | 16.0 | 0.00 | 0.00 | 0.00 | 45 | 1003.6 |
| 20260506131725 | 75 | 256 | 12.0 | 16.0 | 0.00 | 0.00 | 0.00 | 44 | 1005.2 |
| 20260506131504 | 75 | 235 | 12.0 | 16.0 | 0.00 | 0.00 | 0.00 | 45 | 1003.8 |
| 20260506131005 | 75 | 226 | 10.0 | 13.0 | 0.00 | 0.00 | 0.00 | 45 | 1003.8 |
| 20260506130232 | 74 | 254 | 11.0 | 15.0 | 0.00 | 0.00 | 0.00 | 46 | 1005.4 |
| 20260506130005 | 74 | 240 | 10.0 | 15.0 | 0.00 | 0.00 | 0.00 | 48 | 1004.0 |
| 20260506125724 | 73 | 244 | 10.0 | 15.0 | 0.00 | 0.00 | 0.00 | 46 | 1005.8 |
| 20260506125224 | 73 | 243 | 10.0 | 15.0 | 0.00 | 0.00 | 0.00 | 46 | 1005.6 |
| 20260506125004 | 73 | 272 | 11.0 | 16.0 | 0.00 | 0.00 | 0.00 | 48 | 1004.0 |
| 20260506124724 | 73 | 234 | 10.0 | 15.0 | 0.00 | 0.00 | 0.00 | 47 | 1005.6 |
| 20260506124505 | 73 | 253 | 11.0 | 16.0 | 0.00 | 0.00 | 0.00 | 48 | 1004.0 |
| 20260506124225 | 74 | 233 | 10.0 | 16.0 | 0.00 | 0.00 | 0.00 | 47 | 1005.5 |
| 20260506124004 | 74 | 236 | 10.0 | 16.0 | 0.00 | 0.00 | 0.00 | 48 | 1004.1 |
| 20260506123724 | 74 | 266 | 11.0 | 16.0 | 0.00 | 0.00 | 0.00 | 46 | 1005.5 |
| 20260506123504 | 74 | 260 | 12.0 | 16.0 | 0.00 | 0.00 | 0.00 | 48 | 1004.0 |
| 20260506123225 | 74 | 287 | 12.0 | 15.0 | 0.00 | 0.00 | 0.00 | 47 | 1005.6 |
| 20260506122724 | 73 | 271 | 12.0 | 15.0 | 0.00 | 0.00 | 0.00 | 50 | 1005.6 |
| 20260506122504 | 73 | 258 | 11.0 | 14.0 | 0.00 | 0.00 | 0.00 | 51 | 1003.9 |
| 20260506122004 | 73 | 241 | 11.0 | 13.0 | 0.00 | 0.00 | 0.00 | 50 | 1003.9 |
| 20260506121505 | 73 | 244 | 12.0 | 15.0 | 0.00 | 0.00 | 0.00 | 51 | 1004.1 |
| 20260506121225 | 73 | 274 | 12.0 | 16.0 | 0.00 | 0.00 | 0.00 | 50 | 1005.6 |
| 20260506121004 | 73 | 244 | 13.0 | 15.0 | 0.00 | 0.00 | 0.00 | 51 | 1004.0 |
| 20260506120724 | 73 | 299 | 12.0 | 14.0 | 0.00 | 0.00 | 0.00 | 51 | 1005.6 |
| 20260506120504 | 73 | 249 | 12.0 | 14.0 | 0.00 | 0.00 | 0.00 | 51 | 1004.2 |
| 20260506120005 | 73 | 277 | 13.0 | 17.0 | 0.00 | 0.00 | 0.00 | 51 | 1004.0 |
| 20260506115504 | 72 | 286 | 12.0 | 17.0 | 0.00 | 0.00 | 0.00 | 52 | 1003.9 |
| 20260506115225 | 72 | 253 | 11.0 | 16.0 | 0.00 | 0.00 | 0.00 | 51 | 1005.4 |
| 20260506115004 | 72 | 258 | 10.0 | 13.0 | 0.00 | 0.00 | 0.00 | 52 | 1004.0 |
| 20260506114725 | 72 | 238 | 10.0 | 13.0 | 0.00 | 0.00 | 0.00 | 50 | 1005.6 |
| 20260506114504 | 72 | 260 | 11.0 | 16.0 | 0.00 | 0.00 | 0.00 | 52 | 1004.1 |
| 20260506114224 | 72 | 274 | 11.0 | 15.0 | 0.00 | 0.00 | 0.00 | 51 | 1005.6 |
| 20260506114005 | 72 | 256 | 10.0 | 16.0 | 0.00 | 0.00 | 0.00 | 52 | 1004.0 |
| 20260506113724 | 72 | 300 | 10.0 | 15.0 | 0.00 | 0.00 | 0.00 | 52 | 1005.6 |
| 20260506113005 | 72 | 265 | 10.0 | 13.0 | 0.00 | 0.00 | 0.00 | 52 | 1004.1 |
| 20260506112724 | 72 | 264 | 11.0 | 14.0 | 0.00 | 0.00 | 0.00 | 51 | 1005.6 |
| 20260506112224 | 72 | 268 | 12.0 | 14.0 | 0.00 | 0.00 | 0.00 | 51 | 1005.6 |
| 20260506112004 | 72 | 264 | 12.0 | 16.0 | 0.00 | 0.00 | 0.00 | 51 | 1004.1 |
| 20260506111725 | 72 | 258 | 12.0 | 15.0 | 0.00 | 0.00 | 0.00 | 51 | 1005.6 |
| 20260506111505 | 72 | 255 | 12.0 | 16.0 | 0.00 | 0.00 | 0.00 | 52 | 1004.0 |
| 20260506111224 | 72 | 252 | 11.0 | 15.0 | 0.00 | 0.00 | 0.00 | 51 | 1005.7 |
| 20260506111004 | 71 | 240 | 12.0 | 14.0 | 0.00 | 0.00 | 0.00 | 53 | 1004.2 |
| 20260506110725 | 71 | 255 | 12.0 | 16.0 | 0.00 | 0.00 | 0.00 | 52 | 1005.7 |
| 20260506110230 | 72 | 257 | 12.0 | 16.0 | 0.00 | 0.00 | 0.00 | 50 | 1005.7 |
| 20260506110005 | 72 | 263 | 11.0 | 16.0 | 0.00 | 0.00 | 0.00 | 51 | 1004.3 |
| 20260506105725 | 72 | 251 | 10.0 | 14.0 | 0.00 | 0.00 | 0.00 | 49 | 1005.4 |
| 20260506105504 | 72 | 257 | 10.0 | 17.0 | 0.00 | 0.00 | 0.00 | 51 | 1004.2 |
| 20260506105224 | 72 | 268 | 8.0 | 16.0 | 0.00 | 0.00 | 0.00 | 49 | 1005.7 |
| 20260506105005 | 72 | 287 | 9.0 | 17.0 | 0.00 | 0.00 | 0.00 | 51 | 1004.2 |
| 20260506104724 | 72 | 271 | 8.0 | 16.0 | 0.00 | 0.00 | 0.00 | 49 | 1005.6 |
| 20260506104504 | 72 | 277 | 9.0 | 14.0 | 0.00 | 0.00 | 0.00 | 51 | 1003.7 |
| 20260506104225 | 72 | 262 | 9.0 | 12.0 | 0.00 | 0.00 | 0.00 | 49 | 1005.3 |
| 20260506104004 | 72 | 277 | 9.0 | 12.0 | 0.00 | 0.00 | 0.00 | 51 | 1004.0 |
| 20260506103505 | 72 | 269 | 9.0 | 12.0 | 0.00 | 0.00 | 0.00 | 51 | 1004.0 |
| 20260506103224 | 71 | 254 | 9.0 | 12.0 | 0.00 | 0.00 | 0.00 | 52 | 1005.4 |
| 20260506103005 | 71 | 242 | 9.0 | 12.0 | 0.00 | 0.00 | 0.00 | 53 | 1003.9 |
| 20260506102725 | 71 | 248 | 9.0 | 14.0 | 0.00 | 0.00 | 0.00 | 51 | 1005.6 |
| 20260506102224 | 72 | 244 | 10.0 | 14.0 | 0.00 | 0.00 | 0.00 | 47 | 1005.3 |
| 20260506102004 | 72 | 249 | 11.0 | 15.0 | 0.00 | 0.00 | 0.00 | 51 | 1004.0 |
| 20260506101725 | 72 | 282 | 10.0 | 13.0 | 0.00 | 0.00 | 0.00 | 48 | 1005.3 |
| 20260506101505 | 72 | 236 | 11.0 | 14.0 | 0.00 | 0.00 | 0.00 | 51 | 1004.0 |
| 20260506101224 | 72 | 318 | 10.0 | 13.0 | 0.00 | 0.00 | 0.00 | 48 | 1005.4 |
| 20260506100724 | 71 | 313 | 10.0 | 12.0 | 0.00 | 0.00 | 0.00 | 52 | 1005.4 |
| 20260506100504 | 71 | 263 | 11.0 | 14.0 | 0.00 | 0.00 | 0.00 | 53 | 1003.9 |
| 20260506100230 | 71 | 299 | 9.0 | 12.0 | 0.00 | 0.00 | 0.00 | 52 | 1005.4 |
| 20260506100005 | 71 | 241 | 9.0 | 14.0 | 0.00 | 0.00 | 0.00 | 53 | 1003.9 |
| 20260506095724 | 71 | 257 | 8.0 | 10.0 | 0.00 | 0.00 | 0.00 | 51 | 1005.4 |
| 20260506095505 | 71 | 230 | 9.0 | 14.0 | 0.00 | 0.00 | 0.00 | 53 | 1004.1 |
| 20260506095224 | 71 | 234 | 8.0 | 14.0 | 0.00 | 0.00 | 0.00 | 53 | 1005.3 |
| 20260506094724 | 70 | 273 | 9.0 | 14.0 | 0.00 | 0.00 | 0.00 | 52 | 1005.5 |
| 20260506094505 | 70 | 233 | 9.0 | 14.0 | 0.00 | 0.00 | 0.00 | 53 | 1004.2 |
| 20260506094224 | 70 | 254 | 10.0 | 12.0 | 0.00 | 0.00 | 0.00 | 52 | 1005.3 |
| 20260506094004 | 70 | 237 | 10.0 | 14.0 | 0.00 | 0.00 | 0.00 | 54 | 1003.8 |
| 20260506093505 | 69 | 246 | 10.0 | 17.0 | 0.00 | 0.00 | 0.00 | 55 | 1003.9 |
| 20260506093224 | 69 | 287 | 11.0 | 16.0 | 0.00 | 0.00 | 0.00 | 55 | 1005.4 |
| 20260506092724 | 69 | 303 | 12.0 | 16.0 | 0.00 | 0.00 | 0.00 | 54 | 1005.2 |
| 20260506092224 | 70 | 304 | 11.0 | 16.0 | 0.00 | 0.00 | 0.00 | 54 | 1005.2 |
| 20260506092004 | 70 | 254 | 10.0 | 16.0 | 0.00 | 0.00 | 0.00 | 55 | 1003.9 |
| 20260506091724 | 70 | 295 | 9.0 | 16.0 | 0.00 | 0.00 | 0.00 | 54 | 1005.1 |
| 20260506091505 | 70 | 244 | 9.0 | 12.0 | 0.00 | 0.00 | 0.00 | 54 | 1003.7 |
| 20260506091224 | 70 | 256 | 9.0 | 11.0 | 0.00 | 0.00 | 0.00 | 54 | 1005.3 |
| 20260506091004 | 70 | 251 | 9.0 | 12.0 | 0.00 | 0.00 | 0.00 | 55 | 1003.8 |
| 20260506090724 | 69 | 247 | 9.0 | 11.0 | 0.00 | 0.00 | 0.00 | 55 | 1005.4 |
| 20260506090004 | 70 | 233 | 11.0 | 16.0 | 0.00 | 0.00 | 0.00 | 56 | 1003.7 |
| 20260506085724 | 69 | 232 | 11.0 | 15.0 | 0.00 | 0.00 | 0.00 | 56 | 1005.1 |
| 20260506085225 | 69 | 277 | 11.0 | 15.0 | 0.00 | 0.00 | 0.00 | 55 | 1005.2 |
| 20260506085005 | 69 | 248 | 11.0 | 16.0 | 0.00 | 0.00 | 0.00 | 58 | 1003.8 |
| 20260506084724 | 68 | 311 | 10.0 | 14.0 | 0.00 | 0.00 | 0.00 | 58 | 1005.3 |
| 20260506084504 | 68 | 253 | 9.0 | 12.0 | 0.00 | 0.00 | 0.00 | 58 | 1003.7 |
| 20260506084225 | 68 | 283 | 9.0 | 13.0 | 0.00 | 0.00 | 0.00 | 57 | 1005.2 |
| 20260506084004 | 68 | 237 | 10.0 | 13.0 | 0.00 | 0.00 | 0.00 | 59 | 1003.7 |
| 20260506083724 | 67 | 265 | 10.0 | 13.0 | 0.00 | 0.00 | 0.00 | 59 | 1005.6 |
| 20260506083505 | 67 | 249 | 11.0 | 13.0 | 0.00 | 0.00 | 0.00 | 59 | 1003.9 |
| 20260506083224 | 67 | 251 | 10.0 | 13.0 | 0.00 | 0.00 | 0.00 | 58 | 1005.4 |
| 20260506082724 | 67 | 250 | 9.0 | 12.0 | 0.00 | 0.00 | 0.00 | 58 | 1005.4 |
| 20260506082504 | 67 | 249 | 9.0 | 14.0 | 0.00 | 0.00 | 0.00 | 58 | 1003.7 |
| 20260506082004 | 67 | 208 | 11.0 | 16.0 | 0.00 | 0.00 | 0.00 | 59 | 1003.8 |
| 20260506081724 | 67 | 239 | 12.0 | 15.0 | 0.00 | 0.00 | 0.00 | 57 | 1005.6 |
| 20260506081505 | 67 | 229 | 14.0 | 16.0 | 0.00 | 0.00 | 0.00 | 59 | 1003.7 |
| 20260506081005 | 67 | 223 | 14.0 | 15.0 | 0.00 | 0.00 | 0.00 | 58 | 1003.6 |
| 20260506080725 | 67 | 211 | 11.0 | 15.0 | 0.00 | 0.00 | 0.00 | 59 | 1005.2 |
| 20260506080505 | 67 | 210 | 13.0 | 15.0 | 0.00 | 0.00 | 0.00 | 58 | 1003.6 |
| 20260506080230 | 67 | 212 | 12.0 | 15.0 | 0.00 | 0.00 | 0.00 | 58 | 1005.3 |
| 20260506073505 | 66 | 226 | 10.0 | 16.0 | 0.00 | 0.00 | 0.00 | 60 | 1003.6 |
| 20260506073225 | 66 | 238 | 11.0 | 16.0 | 0.00 | 0.00 | 0.00 | 61 | 1005.0 |
| 20260506073004 | 66 | 239 | 11.0 | 16.0 | 0.00 | 0.00 | 0.00 | 62 | 1003.6 |
| 20260506072224 | 66 | 253 | 11.0 | 14.0 | 0.00 | 0.00 | 0.00 | 60 | 1005.0 |
| 20260506072005 | 66 | 221 | 11.0 | 13.0 | 0.00 | 0.00 | 0.00 | 62 | 1003.6 |
| 20260506071724 | 65 | 248 | 11.0 | 15.0 | 0.00 | 0.00 | 0.00 | 60 | 1005.2 |
| 20260506071504 | 66 | 222 | 10.0 | 15.0 | 0.00 | 0.00 | 0.00 | 61 | 1003.4 |
| 20260506070504 | 66 | 226 | 10.0 | 15.0 | 0.00 | 0.00 | 0.00 | 62 | 1003.2 |
| 20260506062504 | 62 | 217 | 8.0 | 11.0 | 0.00 | 0.00 | 0.00 | 66 | 1003.0 |
| 20260506062224 | 62 | 208 | 8.0 | 14.0 | 0.00 | 0.00 | 0.00 | 65 | 1004.7 |
| 20260506061725 | 61 | 223 | 9.0 | 14.0 | 0.00 | 0.00 | 0.00 | 64 | 1004.9 |
| 20260506061504 | 62 | 205 | 10.0 | 14.0 | 0.00 | 0.00 | 0.00 | 65 | 1003.2 |
| 20260506061225 | 61 | 231 | 9.0 | 14.0 | 0.00 | 0.00 | 0.00 | 64 | 1004.6 |
| 20260506061004 | 62 | 203 | 11.0 | 14.0 | 0.00 | 0.00 | 0.00 | 64 | 1003.2 |
| 20260506060724 | 62 | 224 | 8.0 | 13.0 | 0.00 | 0.00 | 0.00 | 64 | 1004.7 |
| 20260506060504 | 62 | 201 | 10.0 | 11.0 | 0.00 | 0.00 | 0.00 | 65 | 1003.1 |
| 20260506060231 | 62 | 220 | 8.0 | 13.0 | 0.00 | 0.00 | 0.00 | 64 | 1004.7 |
| 20260506051225 | 61 | 210 | 7.0 | 9.0 | 0.00 | 0.00 | 0.00 | 65 | 1004.7 |
| 20260506051004 | 60 | 214 | 6.0 | 10.0 | 0.00 | 0.00 | 0.00 | 67 | 1002.8 |
| 20260506050724 | 60 | 201 | 5.0 | 9.0 | 0.00 | 0.00 | 0.00 | 65 | 1005.0 |
| 20260506050504 | 60 | 215 | 6.0 | 10.0 | 0.00 | 0.00 | 0.00 | 69 | 1003.0 |
| 20260506050231 | 60 | 209 | 5.0 | 11.0 | 0.00 | 0.00 | 0.00 | 68 | 1004.7 |
| 20260506045004 | 59 | 215 | 5.0 | 8.0 | 0.00 | 0.00 | 0.00 | 74 | 1003.2 |
| 20260506044725 | 58 | 225 | 5.0 | 8.0 | 0.00 | 0.00 | 0.00 | 75 | 1004.8 |
| 20260506044004 | 57 | 204 | 4.0 | 5.0 | 0.00 | 0.00 | 0.00 | 81 | 1003.3 |
| 20260506043724 | 55 | 188 | 4.0 | 5.0 | 0.00 | 0.00 | 0.00 | 94 | 1004.8 |
| 20260506043505 | 56 | 193 | 4.0 | 5.0 | 0.00 | 0.00 | 0.00 | 85 | 1003.1 |
| 20260506043225 | 54 | 179 | 3.0 | 5.0 | 0.00 | 0.00 | 0.00 | 96 | 1005.0 |
| 20260506043004 | 55 | 186 | 3.0 | 5.0 | 0.00 | 0.00 | 0.00 | 86 | 1003.3 |
| 20260506042724 | 53 | 186 | 3.0 | 4.0 | 0.00 | 0.00 | 0.00 | 97 | 1005.0 |
| 20260506042504 | 54 | 183 | 2.0 | 3.0 | 0.00 | 0.00 | 0.00 | 88 | 1003.2 |
| 20260506042005 | 54 | 171 | 2.0 | 3.0 | 0.00 | 0.00 | 0.00 | 90 | 1003.2 |
| 20260506041725 | 51 | 168 | 2.0 | 3.0 | 0.00 | 0.00 | 0.00 | 99 | 1005.0 |
| 20260506041504 | 53 | 153 | 2.0 | 3.0 | 0.00 | 0.00 | 0.00 | 92 | 1003.3 |
| 20260506041224 | 51 | 173 | 2.0 | 4.0 | 0.00 | 0.00 | 0.00 | 99 | 1004.8 |
| 20260506041005 | 53 | 132 | 2.0 | 2.0 | 0.00 | 0.00 | 0.00 | 92 | 1003.3 |
| 20260506040724 | 50 | 158 | 2.0 | 4.0 | 0.00 | 0.00 | 0.00 | 99 | 1004.8 |
| 20260506040504 | 51 | 150 | 2.0 | 2.0 | 0.00 | 0.00 | 0.00 | 94 | 1003.1 |
| 20260506040230 | 50 | 150 | 2.0 | 2.0 | 0.00 | 0.00 | 0.00 | 99 | 1005.1 |
| 20260506040004 | 51 | 165 | 2.0 | 2.0 | 0.00 | 0.00 | 0.00 | 94 | 1003.2 |
| 20260506035725 | 50 | 155 | 2.0 | 2.0 | 0.00 | 0.00 | 0.00 | 99 | 1005.1 |
| 20260506035505 | 51 | 159 | 1.0 | 2.0 | 0.00 | 0.00 | 0.00 | 94 | 1003.1 |
| 20260506035224 | 50 | 144 | 1.0 | 2.0 | 0.00 | 0.00 | 0.00 | 99 | 1004.9 |
| 20260506035004 | 51 | 142 | 1.0 | 2.0 | 0.00 | 0.00 | 0.00 | 94 | 1003.2 |
| 20260506034724 | 50 | 129 | 0.0 | 2.0 | 0.00 | 0.00 | 0.00 | 99 | 1005.2 |
| 20260506034504 | 51 | 124 | 1.0 | 2.0 | 0.00 | 0.00 | 0.00 | 94 | 1003.3 |
| 20260506034225 | 50 | 123 | 1.0 | 2.0 | 0.00 | 0.00 | 0.00 | 99 | 1004.9 |
| 20260506034004 | 51 | 119 | 2.0 | 2.0 | 0.00 | 0.00 | 0.00 | 94 | 1003.3 |
| 20260506033724 | 50 | 113 | 1.0 | 2.0 | 0.00 | 0.00 | 0.00 | 99 | 1005.1 |
| 20260506033504 | 51 | 115 | 2.0 | 2.0 | 0.00 | 0.00 | 0.00 | 94 | 1003.2 |
| 20260506033224 | 50 | 108 | 2.0 | 2.0 | 0.00 | 0.00 | 0.00 | 99 | 1005.0 |
| 20260506033005 | 51 | 117 | 2.0 | 3.0 | 0.00 | 0.00 | 0.00 | 94 | 1003.2 |
| 20260506032725 | 50 | 116 | 2.0 | 3.0 | 0.00 | 0.00 | 0.00 | 99 | 1005.0 |
| 20260506032505 | 51 | 111 | 2.0 | 3.0 | 0.00 | 0.00 | 0.00 | 94 | 1003.3 |
| 20260506032004 | 51 | 109 | 2.0 | 3.0 | 0.00 | 0.00 | 0.00 | 94 | 1003.3 |
| 20260506031724 | 50 | 105 | 2.0 | 2.0 | 0.00 | 0.00 | 0.00 | 98 | 1005.1 |
| 20260506031504 | 51 | 116 | 2.0 | 2.0 | 0.00 | 0.00 | 0.00 | 94 | 1003.3 |
| 20260506030504 | 51 | 117 | 2.0 | 2.0 | 0.00 | 0.00 | 0.00 | 94 | 1003.5 |
| 20260506030004 | 51 | 110 | 2.0 | 3.0 | 0.00 | 0.00 | 0.00 | 94 | 1003.4 |
| 20260506025505 | 51 | 114 | 2.0 | 3.0 | 0.00 | 0.00 | 0.00 | 94 | 1003.3 |
| 20260506025225 | 50 | 108 | 2.0 | 2.0 | 0.00 | 0.00 | 0.00 | 98 | 1005.1 |
| 20260506025004 | 51 | 113 | 2.0 | 2.0 | 0.00 | 0.00 | 0.00 | 94 | 1003.5 |
| 20260506024504 | 50 | 89 | 2.0 | 2.0 | 0.00 | 0.00 | 0.00 | 93 | 1003.4 |
| 20260506024005 | 50 | 101 | 2.0 | 2.0 | 0.00 | 0.00 | 0.00 | 93 | 1003.3 |
| 20260506023724 | 50 | 100 | 1.0 | 2.0 | 0.00 | 0.00 | 0.00 | 97 | 1005.1 |
| 20260506023504 | 51 | 110 | 2.0 | 2.0 | 0.00 | 0.00 | 0.00 | 93 | 1003.4 |
| 20260506023225 | 50 | 115 | 1.0 | 2.0 | 0.00 | 0.00 | 0.00 | 97 | 1005.2 |
| 20260506023004 | 51 | 113 | 2.0 | 2.0 | 0.00 | 0.00 | 0.00 | 93 | 1003.3 |
| 20260506022724 | 50 | 124 | 1.0 | 2.0 | 0.00 | 0.00 | 0.00 | 96 | 1005.2 |
| 20260506022504 | 51 | 112 | 1.0 | 2.0 | 0.00 | 0.00 | 0.00 | 93 | 1003.4 |
| 20260506022224 | 50 | 120 | 1.0 | 2.0 | 0.00 | 0.00 | 0.00 | 97 | 1005.3 |
| 20260506022004 | 51 | 104 | 1.0 | 2.0 | 0.00 | 0.00 | 0.00 | 93 | 1003.4 |
| 20260506021725 | 50 | 0 | 0.0 | 0.0 | 0.00 | 0.00 | 0.00 | 97 | 1005.3 |
| 20260506021224 | 50 | 0 | 0.0 | 0.0 | 0.00 | 0.00 | 0.00 | 96 | 1005.4 |
| 20260506021005 | 51 | 0 | 0.0 | 0.0 | 0.00 | 0.00 | 0.00 | 93 | 1003.5 |
| 20260506020725 | 51 | 135 | 0.0 | 1.0 | 0.00 | 0.00 | 0.00 | 96 | 1005.3 |
| 20260506020504 | 53 | 135 | 0.0 | 1.0 | 0.00 | 0.00 | 0.00 | 93 | 1003.5 |
| 20260506020230 | 51 | 135 | 0.0 | 2.0 | 0.00 | 0.00 | 0.00 | 96 | 1005.3 |
| 20260506020004 | 53 | 130 | 0.0 | 2.0 | 0.00 | 0.00 | 0.00 | 93 | 1003.5 |
| 20260506015724 | 52 | 125 | 1.0 | 2.0 | 0.00 | 0.00 | 0.00 | 96 | 1005.4 |
| 20260506015504 | 53 | 127 | 1.0 | 2.0 | 0.00 | 0.00 | 0.00 | 93 | 1003.5 |
| 20260506015225 | 52 | 129 | 2.0 | 2.0 | 0.00 | 0.00 | 0.00 | 96 | 1005.3 |
| 20260506015004 | 53 | 134 | 2.0 | 3.0 | 0.00 | 0.00 | 0.00 | 93 | 1003.6 |
| 20260506014725 | 52 | 133 | 2.0 | 3.0 | 0.00 | 0.00 | 0.00 | 96 | 1005.4 |
| 20260506014224 | 51 | 135 | 1.0 | 3.0 | 0.00 | 0.00 | 0.00 | 96 | 1005.2 |
| 20260506013724 | 52 | 135 | 1.0 | 2.0 | 0.00 | 0.00 | 0.00 | 96 | 1005.4 |
| 20260506013504 | 53 | 115 | 0.0 | 2.0 | 0.00 | 0.00 | 0.00 | 92 | 1003.7 |
| 20260506013225 | 52 | 135 | 1.0 | 2.0 | 0.00 | 0.00 | 0.00 | 95 | 1005.3 |
| 20260506013004 | 53 | 128 | 1.0 | 2.0 | 0.00 | 0.00 | 0.00 | 92 | 1003.7 |
| 20260506012725 | 52 | 135 | 2.0 | 2.0 | 0.00 | 0.00 | 0.00 | 95 | 1005.4 |
| 20260506012505 | 53 | 121 | 2.0 | 3.0 | 0.00 | 0.00 | 0.00 | 92 | 1003.7 |
| 20260506012225 | 52 | 129 | 2.0 | 2.0 | 0.00 | 0.00 | 0.00 | 94 | 1005.2 |
| 20260506012004 | 53 | 115 | 2.0 | 3.0 | 0.00 | 0.00 | 0.00 | 92 | 1003.5 |
| 20260506011505 | 53 | 121 | 1.0 | 3.0 | 0.00 | 0.00 | 0.00 | 92 | 1003.5 |
| 20260506011224 | 52 | 125 | 1.0 | 3.0 | 0.00 | 0.00 | 0.00 | 94 | 1005.4 |
| 20260506010725 | 52 | 118 | 0.0 | 2.0 | 0.00 | 0.00 | 0.00 | 94 | 1005.4 |
| 20260506010230 | 53 | 123 | 0.0 | 1.0 | 0.00 | 0.00 | 0.00 | 94 | 1005.4 |
| 20260506005724 | 53 | 127 | 0.0 | 2.0 | 0.00 | 0.00 | 0.00 | 94 | 1005.5 |
| 20260506005505 | 54 | 118 | 1.0 | 2.0 | 0.00 | 0.00 | 0.00 | 91 | 1003.8 |
| 20260506005224 | 53 | 119 | 1.0 | 2.0 | 0.00 | 0.00 | 0.00 | 94 | 1005.5 |
| 20260506005004 | 54 | 115 | 2.0 | 3.0 | 0.00 | 0.00 | 0.00 | 91 | 1003.9 |
| 20260506004505 | 54 | 118 | 3.0 | 4.0 | 0.00 | 0.00 | 0.00 | 90 | 1003.9 |
| 20260506004224 | 53 | 126 | 3.0 | 4.0 | 0.00 | 0.00 | 0.00 | 94 | 1005.4 |
| 20260506004004 | 54 | 118 | 3.0 | 4.0 | 0.00 | 0.00 | 0.00 | 90 | 1003.9 |
| 20260506003504 | 54 | 105 | 4.0 | 4.0 | 0.00 | 0.00 | 0.00 | 90 | 1003.9 |
| 20260506003225 | 53 | 116 | 3.0 | 3.0 | 0.00 | 0.00 | 0.00 | 94 | 1005.6 |
| 20260506003004 | 54 | 94 | 2.0 | 4.0 | 0.00 | 0.00 | 0.00 | 90 | 1003.8 |
| 20260506002724 | 53 | 115 | 2.0 | 3.0 | 0.00 | 0.00 | 0.00 | 94 | 1005.5 |
| 20260506002504 | 54 | 99 | 1.0 | 4.0 | 0.00 | 0.00 | 0.00 | 90 | 1003.7 |
| 20260506002224 | 53 | 126 | 2.0 | 3.0 | 0.00 | 0.00 | 0.00 | 93 | 1005.6 |
| 20260506002004 | 54 | 101 | 2.0 | 3.0 | 0.00 | 0.00 | 0.00 | 89 | 1003.8 |
| 20260506001725 | 54 | 125 | 2.0 | 3.0 | 0.00 | 0.00 | 0.00 | 92 | 1005.7 |
| 20260506001504 | 54 | 102 | 1.0 | 3.0 | 0.00 | 0.00 | 0.00 | 89 | 1004.0 |
| 20260506001224 | 53 | 117 | 1.0 | 3.0 | 0.00 | 0.00 | 0.00 | 93 | 1005.4 |
| 20260506000724 | 53 | 97 | 1.0 | 2.0 | 0.00 | 0.00 | 0.00 | 93 | 1005.5 |
| 20260506000231 | 53 | 98 | 1.0 | 2.0 | 0.00 | 0.00 | 0.00 | 92 | 1005.6 |
| 20260506000004 | 54 | 0 | 0.0 | 0.0 | 0.00 | 0.00 | 0.00 | 88 | 1003.9 |
| 20260505235724 | 53 | 101 | 0.0 | 2.0 | 0.00 | 0.00 | 0.00 | 92 | 1005.4 |
| 20260505235504 | 54 | 135 | 0.0 | 2.0 | 0.00 | 0.00 | 0.00 | 87 | 1004.1 |
| 20260505235004 | 54 | 128 | 0.0 | 2.0 | 0.00 | 0.00 | 0.00 | 87 | 1004.1 |
| 20260505234504 | 54 | 131 | 0.0 | 1.0 | 0.00 | 0.00 | 0.00 | 87 | 1004.1 |
| 20260505234225 | 54 | 97 | 0.0 | 2.0 | 0.00 | 0.00 | 0.00 | 91 | 1005.7 |
| 20260505234004 | 55 | 90 | 1.0 | 2.0 | 0.00 | 0.00 | 0.00 | 88 | 1004.1 |
| 20260505233504 | 55 | 103 | 2.0 | 2.0 | 0.00 | 0.00 | 0.00 | 88 | 1004.0 |
| 20260505233225 | 54 | 110 | 1.0 | 2.0 | 0.00 | 0.00 | 0.00 | 91 | 1005.7 |
| 20260505233004 | 55 | 116 | 1.0 | 2.0 | 0.00 | 0.00 | 0.00 | 87 | 1004.0 |
| 20260505232724 | 54 | 119 | 1.0 | 3.0 | 0.00 | 0.00 | 0.00 | 90 | 1005.7 |
| 20260505232504 | 55 | 109 | 2.0 | 4.0 | 0.00 | 0.00 | 0.00 | 87 | 1004.0 |
| 20260505232225 | 54 | 89 | 2.0 | 4.0 | 0.00 | 0.00 | 0.00 | 90 | 1005.7 |
| 20260505232004 | 55 | 89 | 3.0 | 4.0 | 0.00 | 0.00 | 0.00 | 86 | 1004.1 |
| 20260505231725 | 54 | 66 | 2.0 | 4.0 | 0.00 | 0.00 | 0.00 | 89 | 1005.8 |
| 20260505231504 | 55 | 64 | 3.0 | 4.0 | 0.00 | 0.00 | 0.00 | 85 | 1004.3 |
| 20260505231225 | 54 | 145 | 2.0 | 4.0 | 0.00 | 0.00 | 0.00 | 89 | 1005.9 |
| 20260505231005 | 55 | 94 | 2.0 | 4.0 | 0.00 | 0.00 | 0.00 | 86 | 1004.4 |
| 20260505230504 | 55 | 107 | 1.0 | 2.0 | 0.00 | 0.00 | 0.00 | 85 | 1004.1 |
| 20260505230005 | 55 | 246 | 1.0 | 3.0 | 0.00 | 0.00 | 0.00 | 85 | 1004.2 |
| 20260505225725 | 54 | 282 | 1.0 | 3.0 | 0.00 | 0.00 | 0.00 | 87 | 1006.1 |
| 20260505225504 | 55 | 282 | 2.0 | 4.0 | 0.00 | 0.00 | 0.00 | 85 | 1004.3 |
| 20260505225224 | 54 | 154 | 2.0 | 4.0 | 0.00 | 0.00 | 0.00 | 87 | 1005.9 |
| 20260505225005 | 56 | 242 | 3.0 | 4.0 | 0.00 | 0.00 | 0.00 | 85 | 1004.3 |
| 20260505224724 | 54 | 150 | 2.0 | 4.0 | 0.00 | 0.00 | 0.00 | 86 | 1005.7 |
| 20260505224504 | 56 | 165 | 3.0 | 4.0 | 0.00 | 0.00 | 0.00 | 84 | 1004.3 |
| 20260505224225 | 55 | 191 | 2.0 | 4.0 | 0.00 | 0.00 | 0.00 | 86 | 1006.0 |
| 20260505224004 | 56 | 174 | 2.0 | 4.0 | 0.00 | 0.00 | 0.00 | 85 | 1004.3 |
| 20260505223725 | 56 | 192 | 1.0 | 2.0 | 0.00 | 0.00 | 0.00 | 86 | 1005.8 |
| 20260505223225 | 56 | 198 | 1.0 | 2.0 | 0.00 | 0.00 | 0.00 | 86 | 1005.9 |
| 20260505223004 | 57 | 183 | 1.0 | 3.0 | 0.00 | 0.00 | 0.00 | 84 | 1004.3 |
| 20260505222504 | 57 | 151 | 2.0 | 3.0 | 0.00 | 0.00 | 0.00 | 82 | 1004.2 |
| 20260505222225 | 56 | 151 | 1.0 | 3.0 | 0.00 | 0.00 | 0.00 | 85 | 1006.1 |
| 20260505222004 | 58 | 130 | 1.0 | 3.0 | 0.00 | 0.00 | 0.00 | 82 | 1004.3 |
| 20260505221724 | 56 | 159 | 1.0 | 2.0 | 0.00 | 0.00 | 0.00 | 85 | 1006.0 |
| 20260505221504 | 58 | 257 | 2.0 | 2.0 | 0.00 | 0.00 | 0.00 | 81 | 1004.3 |
| 20260505221224 | 57 | 45 | 1.0 | 2.0 | 0.00 | 0.00 | 0.00 | 85 | 1005.9 |
| 20260505221005 | 59 | 302 | 2.0 | 2.0 | 0.00 | 0.00 | 0.00 | 83 | 1004.3 |
| 20260505220725 | 58 | 57 | 1.0 | 2.0 | 0.00 | 0.00 | 0.00 | 84 | 1005.9 |
| 20260505220504 | 58 | 330 | 2.0 | 3.0 | 0.00 | 0.00 | 0.00 | 81 | 1004.1 |
| 20260505220231 | 58 | 344 | 2.0 | 4.0 | 0.00 | 0.00 | 0.00 | 84 | 1005.9 |
| 20260505220005 | 58 | 238 | 3.0 | 4.0 | 0.00 | 0.00 | 0.00 | 81 | 1004.3 |
| 20260505215725 | 58 | 325 | 3.0 | 4.0 | 0.00 | 0.00 | 0.00 | 83 | 1006.0 |
| 20260505215005 | 60 | 259 | 4.0 | 5.0 | 0.00 | 0.00 | 0.00 | 79 | 1004.2 |
| 20260505214724 | 59 | 327 | 3.0 | 5.0 | 0.00 | 0.00 | 0.00 | 83 | 1006.0 |
| 20260505213725 | 59 | 287 | 6.0 | 9.0 | 0.00 | 0.00 | 0.00 | 83 | 1006.0 |
| 20260505213224 | 59 | 22 | 4.0 | 8.0 | 0.00 | 0.00 | 0.00 | 83 | 1006.0 |
| 20260505213004 | 60 | 282 | 3.0 | 8.0 | 0.00 | 0.00 | 0.00 | 78 | 1004.4 |
| 20260505212725 | 59 | 63 | 1.0 | 3.0 | 0.00 | 0.00 | 0.00 | 82 | 1006.0 |
| 20260505212504 | 60 | 126 | 1.0 | 2.0 | 0.00 | 0.00 | 0.00 | 77 | 1004.2 |
| 20260505212224 | 59 | 295 | 0.0 | 2.0 | 0.00 | 0.00 | 0.00 | 81 | 1005.9 |
| 20260505211725 | 59 | 196 | 1.0 | 2.0 | 0.00 | 0.00 | 0.00 | 80 | 1006.1 |
| 20260505211504 | 60 | 126 | 1.0 | 2.0 | 0.00 | 0.00 | 0.00 | 77 | 1004.3 |
| 20260505211225 | 59 | 87 | 1.0 | 2.0 | 0.00 | 0.00 | 0.00 | 79 | 1006.1 |
| 20260505211004 | 60 | 41 | 2.0 | 2.0 | 0.00 | 0.00 | 0.00 | 76 | 1004.4 |
| 20260505210724 | 59 | 352 | 1.0 | 2.0 | 0.00 | 0.00 | 0.00 | 78 | 1006.0 |
| 20260505210504 | 60 | 327 | 1.0 | 2.0 | 0.00 | 0.00 | 0.00 | 75 | 1004.3 |
| 20260505210231 | 60 | 350 | 1.0 | 2.0 | 0.00 | 0.00 | 0.00 | 76 | 1005.8 |
| 20260505210005 | 61 | 4 | 1.0 | 2.0 | 0.00 | 0.00 | 0.00 | 74 | 1004.4 |
| 20260505205724 | 60 | 31 | 1.0 | 2.0 | 0.00 | 0.00 | 0.00 | 76 | 1006.0 |
| 20260505205504 | 61 | 332 | 1.0 | 2.0 | 0.00 | 0.00 | 0.00 | 72 | 1004.3 |
| 20260505205225 | 61 | 345 | 1.0 | 2.0 | 0.00 | 0.00 | 0.00 | 74 | 1006.0 |
| 20260505205004 | 62 | 322 | 2.0 | 3.0 | 0.00 | 0.00 | 0.00 | 71 | 1004.4 |
| 20260505204725 | 62 | 29 | 1.0 | 2.0 | 0.00 | 0.00 | 0.00 | 72 | 1006.1 |
| 20260505204504 | 63 | 340 | 1.0 | 3.0 | 0.00 | 0.00 | 0.00 | 70 | 1004.3 |
| 20260505204224 | 62 | 46 | 0.0 | 2.0 | 0.00 | 0.00 | 0.00 | 72 | 1005.9 |
| 20260505204004 | 63 | 196 | 0.0 | 2.0 | 0.00 | 0.00 | 0.00 | 69 | 1004.3 |
| 20260505203724 | 63 | 0 | 0.0 | 0.0 | 0.00 | 0.00 | 0.00 | 71 | 1006.1 |
| 20260505203504 | 64 | 40 | 0.0 | 1.0 | 0.00 | 0.00 | 0.00 | 69 | 1004.4 |
| 20260505203225 | 63 | 46 | 0.0 | 1.0 | 0.00 | 0.00 | 0.00 | 70 | 1006.1 |
| 20260505202504 | 64 | 339 | 2.0 | 4.0 | 0.00 | 0.00 | 0.00 | 68 | 1004.4 |
| 20260505201725 | 64 | 51 | 3.0 | 6.0 | 0.00 | 0.00 | 0.00 | 69 | 1005.7 |
| 20260505201504 | 65 | 354 | 4.0 | 6.0 | 0.00 | 0.00 | 0.00 | 67 | 1004.3 |
| 20260505201225 | 65 | 38 | 4.0 | 6.0 | 0.00 | 0.00 | 0.00 | 68 | 1005.8 |
| 20260505201004 | 65 | 1 | 3.0 | 5.0 | 0.00 | 0.00 | 0.00 | 66 | 1004.2 |
| 20260505200504 | 64 | 347 | 3.0 | 5.0 | 0.00 | 0.00 | 0.00 | 64 | 1004.2 |
| 20260505200231 | 64 | 28 | 4.0 | 5.0 | 0.00 | 0.00 | 0.00 | 66 | 1005.9 |
| 20260505200004 | 64 | 349 | 4.0 | 5.0 | 0.00 | 0.00 | 0.00 | 64 | 1004.2 |
| 20260505195724 | 64 | 36 | 3.0 | 5.0 | 0.00 | 0.00 | 0.00 | 65 | 1005.8 |
| 20260505195504 | 64 | 349 | 4.0 | 5.0 | 0.00 | 0.00 | 0.00 | 63 | 1004.2 |
| 20260505195225 | 64 | 19 | 2.0 | 4.0 | 0.00 | 0.00 | 0.00 | 64 | 1005.8 |
| 20260505195005 | 64 | 313 | 3.0 | 4.0 | 0.00 | 0.00 | 0.00 | 62 | 1004.3 |
| 20260505194725 | 63 | 195 | 2.0 | 4.0 | 0.00 | 0.00 | 0.00 | 62 | 1005.9 |
| 20260505194504 | 64 | 215 | 2.0 | 4.0 | 0.00 | 0.00 | 0.00 | 61 | 1004.3 |
| 20260505194224 | 63 | 187 | 2.0 | 4.0 | 0.00 | 0.00 | 0.00 | 62 | 1005.8 |
| 20260505194004 | 64 | 228 | 3.0 | 4.0 | 0.00 | 0.00 | 0.00 | 59 | 1004.3 |
| 20260505193724 | 63 | 155 | 2.0 | 4.0 | 0.00 | 0.00 | 0.00 | 60 | 1005.7 |
| 20260505193225 | 63 | 346 | 3.0 | 8.0 | 0.00 | 0.00 | 0.00 | 57 | 1005.8 |
| 20260505193004 | 63 | 350 | 2.0 | 9.0 | 0.00 | 0.00 | 0.00 | 56 | 1004.2 |
| 20260505192504 | 63 | 321 | 4.0 | 9.0 | 0.00 | 0.00 | 0.00 | 53 | 1004.1 |
| 20260505192225 | 62 | 286 | 3.0 | 7.0 | 0.00 | 0.00 | 0.00 | 55 | 1005.7 |
| 20260505192004 | 63 | 284 | 3.0 | 6.0 | 0.00 | 0.00 | 0.00 | 52 | 1004.1 |
| 20260505191225 | 62 | 296 | 1.0 | 3.0 | 0.00 | 0.00 | 0.00 | 52 | 1005.7 |
| 20260505191004 | 64 | 270 | 0.0 | 3.0 | 0.00 | 0.00 | 0.00 | 49 | 1004.0 |
| 20260505190505 | 65 | 0 | 0.0 | 0.0 | 0.00 | 0.00 | 0.00 | 47 | 1003.9 |
| 20260505190231 | 64 | 270 | 0.0 | 1.0 | 0.00 | 0.00 | 0.00 | 47 | 1005.4 |
| 20260505190004 | 66 | 290 | 1.0 | 2.0 | 0.00 | 0.00 | 0.00 | 46 | 1003.7 |
| 20260505185724 | 65 | 279 | 0.0 | 2.0 | 0.00 | 0.00 | 0.00 | 46 | 1005.5 |
| 20260505185505 | 67 | 269 | 2.0 | 2.0 | 0.00 | 0.00 | 0.00 | 44 | 1003.8 |
| 20260505185225 | 67 | 270 | 1.0 | 2.0 | 0.00 | 0.00 | 0.00 | 44 | 1005.3 |
| 20260505184725 | 68 | 200 | 2.0 | 4.0 | 0.00 | 0.00 | 0.00 | 41 | 1005.3 |
| 20260505184004 | 69 | 182 | 3.0 | 4.0 | 0.00 | 0.00 | 0.00 | 41 | 1003.6 |
| 20260505183505 | 69 | 168 | 3.0 | 4.0 | 0.00 | 0.00 | 0.00 | 41 | 1003.6 |
| 20260505183225 | 69 | 158 | 3.0 | 4.0 | 0.00 | 0.00 | 0.00 | 40 | 1005.1 |
| 20260505183004 | 69 | 162 | 3.0 | 4.0 | 0.00 | 0.00 | 0.00 | 42 | 1003.6 |
| 20260505182725 | 69 | 166 | 2.0 | 4.0 | 0.00 | 0.00 | 0.00 | 41 | 1005.3 |
| 20260505182504 | 69 | 171 | 2.0 | 4.0 | 0.00 | 0.00 | 0.00 | 41 | 1003.7 |
| 20260505182005 | 70 | 183 | 2.0 | 2.0 | 0.00 | 0.00 | 0.00 | 39 | 1003.6 |
| 20260505181725 | 70 | 174 | 1.0 | 2.0 | 0.00 | 0.00 | 0.00 | 39 | 1005.3 |
| 20260505181224 | 70 | 166 | 0.0 | 1.0 | 0.00 | 0.00 | 0.00 | 36 | 1005.1 |
| 20260505181005 | 71 | 181 | 0.0 | 2.0 | 0.00 | 0.00 | 0.00 | 36 | 1003.7 |
| 20260505180725 | 71 | 0 | 0.0 | 0.0 | 0.00 | 0.00 | 0.00 | 35 | 1005.3 |
| 20260505180504 | 72 | 181 | 0.0 | 1.0 | 0.00 | 0.00 | 0.00 | 33 | 1003.6 |
| 20260505180004 | 72 | 222 | 0.0 | 1.0 | 0.00 | 0.00 | 0.00 | 33 | 1003.6 |
| 20260505175725 | 72 | 181 | 0.0 | 1.0 | 0.00 | 0.00 | 0.00 | 32 | 1005.3 |
| 20260505175505 | 73 | 257 | 1.0 | 2.0 | 0.00 | 0.00 | 0.00 | 33 | 1003.4 |
| 20260505175224 | 72 | 270 | 0.0 | 2.0 | 0.00 | 0.00 | 0.00 | 32 | 1005.2 |
| 20260505175004 | 74 | 274 | 1.0 | 2.0 | 0.00 | 0.00 | 0.00 | 34 | 1003.5 |
| 20260505174724 | 73 | 256 | 1.0 | 2.0 | 0.00 | 0.00 | 0.00 | 32 | 1005.1 |
| 20260505174504 | 74 | 268 | 2.0 | 2.0 | 0.00 | 0.00 | 0.00 | 33 | 1003.4 |
| 20260505174225 | 73 | 262 | 1.0 | 2.0 | 0.00 | 0.00 | 0.00 | 32 | 1005.0 |
| 20260505174004 | 74 | 265 | 2.0 | 2.0 | 0.00 | 0.00 | 0.00 | 33 | 1003.4 |
| 20260505173725 | 74 | 266 | 2.0 | 2.0 | 0.00 | 0.00 | 0.00 | 32 | 1005.2 |
| 20260505173504 | 75 | 264 | 2.0 | 4.0 | 0.00 | 0.00 | 0.00 | 32 | 1003.4 |
| 20260505173224 | 74 | 280 | 3.0 | 4.0 | 0.00 | 0.00 | 0.00 | 30 | 1004.9 |
| 20260505173004 | 75 | 259 | 3.0 | 4.0 | 0.00 | 0.00 | 0.00 | 30 | 1003.4 |
| 20260505172725 | 75 | 273 | 3.0 | 5.0 | 0.00 | 0.00 | 0.00 | 30 | 1005.1 |
| 20260505172224 | 75 | 267 | 3.0 | 5.0 | 0.00 | 0.00 | 0.00 | 29 | 1005.2 |
| 20260505172004 | 77 | 266 | 3.0 | 4.0 | 0.00 | 0.00 | 0.00 | 30 | 1003.5 |
| 20260505171505 | 77 | 253 | 3.0 | 5.0 | 0.00 | 0.00 | 0.00 | 28 | 1003.4 |
| 20260505171225 | 76 | 265 | 4.0 | 6.0 | 0.00 | 0.00 | 0.00 | 28 | 1005.2 |
| 20260505171004 | 77 | 249 | 5.0 | 8.0 | 0.00 | 0.00 | 0.00 | 28 | 1003.5 |
| 20260505170724 | 76 | 268 | 6.0 | 9.0 | 0.00 | 0.00 | 0.00 | 27 | 1005.1 |
| 20260505170504 | 77 | 264 | 6.0 | 8.0 | 0.00 | 0.00 | 0.00 | 27 | 1003.6 |
| 20260505170004 | 78 | 270 | 6.0 | 8.0 | 0.00 | 0.00 | 0.00 | 27 | 1003.4 |
| 20260505165725 | 77 | 274 | 7.0 | 9.0 | 0.00 | 0.00 | 0.00 | 25 | 1005.1 |
| 20260505165504 | 78 | 259 | 7.0 | 8.0 | 0.00 | 0.00 | 0.00 | 26 | 1003.5 |
| 20260505165224 | 78 | 291 | 8.0 | 11.0 | 0.00 | 0.00 | 0.00 | 25 | 1005.2 |
| 20260505165004 | 79 | 282 | 8.0 | 11.0 | 0.00 | 0.00 | 0.00 | 26 | 1003.5 |
| 20260505164724 | 78 | 292 | 8.0 | 11.0 | 0.00 | 0.00 | 0.00 | 24 | 1005.1 |
| 20260505164504 | 79 | 293 | 8.0 | 11.0 | 0.00 | 0.00 | 0.00 | 24 | 1003.6 |
| 20260505164225 | 79 | 297 | 7.0 | 10.0 | 0.00 | 0.00 | 0.00 | 24 | 1005.4 |
| 20260505164004 | 79 | 276 | 8.0 | 10.0 | 0.00 | 0.00 | 0.00 | 24 | 1003.6 |
| 20260505163725 | 79 | 266 | 8.0 | 10.0 | 0.00 | 0.00 | 0.00 | 23 | 1005.0 |
| 20260505163504 | 80 | 270 | 8.0 | 10.0 | 0.00 | 0.00 | 0.00 | 23 | 1003.6 |
| 20260505163004 | 80 | 248 | 8.0 | 10.0 | 0.00 | 0.00 | 0.00 | 22 | 1003.5 |
| 20260505162504 | 80 | 235 | 8.0 | 10.0 | 0.00 | 0.00 | 0.00 | 22 | 1003.7 |
| 20260505162224 | 80 | 268 | 8.0 | 11.0 | 0.00 | 0.00 | 0.00 | 17 | 1005.1 |
| 20260505162004 | 80 | 243 | 9.0 | 11.0 | 0.00 | 0.00 | 0.00 | 21 | 1003.6 |
| 20260505161725 | 80 | 296 | 9.0 | 13.0 | 0.00 | 0.00 | 0.00 | 17 | 1005.3 |
| 20260505161504 | 80 | 224 | 10.0 | 12.0 | 0.00 | 0.00 | 0.00 | 21 | 1003.7 |
| 20260505160504 | 80 | 198 | 10.0 | 12.0 | 0.00 | 0.00 | 0.00 | 20 | 1003.6 |
| 20260505153224 | 80 | 218 | 9.0 | 13.0 | 0.00 | 0.00 | 0.00 | 15 | 1005.6 |
| 20260505153004 | 81 | 218 | 10.0 | 14.0 | 0.00 | 0.00 | 0.00 | 18 | 1003.8 |
| 20260505152725 | 80 | 214 | 11.0 | 13.0 | 0.00 | 0.00 | 0.00 | 15 | 1005.3 |
| 20260505152225 | 81 | 215 | 10.0 | 13.0 | 0.00 | 0.00 | 0.00 | 14 | 1005.6 |
| 20260505152004 | 81 | 182 | 10.0 | 15.0 | 0.00 | 0.00 | 0.00 | 18 | 1003.8 |
| 20260505151725 | 81 | 225 | 10.0 | 12.0 | 0.00 | 0.00 | 0.00 | 15 | 1005.6 |
| 20260505151504 | 81 | 189 | 10.0 | 14.0 | 0.00 | 0.00 | 0.00 | 20 | 1003.9 |
| 20260505151224 | 81 | 225 | 10.0 | 15.0 | 0.00 | 0.00 | 0.00 | 15 | 1005.3 |
| 20260505150725 | 81 | 229 | 9.0 | 15.0 | 0.00 | 0.00 | 0.00 | 15 | 1005.9 |
| 20260505150504 | 81 | 231 | 10.0 | 15.0 | 0.00 | 0.00 | 0.00 | 20 | 1003.9 |
| 20260505150231 | 81 | 238 | 10.0 | 12.0 | 0.00 | 0.00 | 0.00 | 16 | 1005.6 |
| 20260505140230 | 82 | 215 | 10.0 | 15.0 | 0.00 | 0.00 | 0.00 | 18 | 1006.0 |